Printer-friendly version

IAU Minor Planet Center

Minor Planet Center

MPEC 2006-F25 : 2006 FH

The following Minor Planet Electronic Circular may be linked-to from your own Web pages, but must not otherwise be redistributed electronically.


Read MPEC 2006-F24 Read MPEC 2006-F26


M.P.E.C. 2006-F25                                Issued 2006 Mar. 24, 16:20 UT

     The Minor Planet Electronic Circulars contain information on unusual
         minor planets and routine data on comets.  They are published
   on behalf of Commission 20 of the International Astronomical Union by the
          Minor Planet Center, Smithsonian Astrophysical Observatory,
                          Cambridge, MA 02138, U.S.A.

                  Supported in part by the Brinson Foundation
                  Supported in part by the TABASGO Foundation
             Prepared using the Tamkin Foundation Computer Network

                              MPC@CFA.HARVARD.EDU
          URL http://cfa-www.harvard.edu/iau/mpc.html  ISSN 1523-6714

                                    2006 FH

Observations:
     K06F00H* C2006 03 23.27837 10 51 27.93 +06 54 37.8          20.7 V EF025G96
     K06F00H  C2006 03 23.28589 10 51 29.19 +06 54 47.8          20.6 V EF025G96
     K06F00H  C2006 03 23.29331 10 51 30.27 +06 54 57.1          20.8 V EF025G96
     K06F00H  C2006 03 23.30075 10 51 31.46 +06 55 06.2          20.6 V EF025G96
     K06F00H  C2006 03 23.35431 10 51 40.17 +06 56 14.0          20.5 V EF025G96
     K06F00H  C2006 03 23.35602 10 51 40.46 +06 56 16.6          20.7 V EF025G96
     K06F00H  C2006 03 23.35774 10 51 40.75 +06 56 18.5          21.2 V EF025G96
     K06F00H  C2006 03 23.35944 10 51 41.04 +06 56 20.6          20.9 V EF025G96
     K06F00H 5C2006 03 24.16377 10 54 24.92 +07 14 00.6          21.0 R EF025673
     K06F00H 5C2006 03 24.17083 10 54 26.12 +07 14 09.8                 EF025673
     K06F00H 5C2006 03 24.18079 10 54 27.89 +07 14 23.6                 EF025673
     K06F00H 5C2006 03 24.18426 10 54 28.57 +07 14 29.2                 EF025673
     K06F00H  C2006 03 24.20549 10 54 30.61 +07 14 53.5          20.8 R EF025734
     K06F00H  C2006 03 24.21138 10 54 31.70 +07 14 59.8          20.5 R EF025734
     K06F00H  C2006 03 24.21729 10 54 32.67 +07 15 09.6          20.7 R EF025734

Observer details:
673 Table Mountain Observatory, Wrightwood.  Observer J. Young.  0.6-m f/16
    Cassegrain + CCD.
734 Farpoint Observatory.  Observer G. Hug.  Measurer D. Tibbets.  0.7-m
    reflector + CCD.
G96 Mt. Lemmon Survey.  Observer E. J. Christensen.  Measurers E. C. Beshore,
    E. J. Christensen, G. J. Garradd, A. R. Gibbs, A. D. Grauer, R. E. Hill,
    R. A. Kowalski, S. M. Larson, R. H. McNaught.  1.5-m reflector + CCD.

Orbital elements:
2006 FH                                                  Earth MOID = 0.0474 AU
Epoch 2006 Mar. 6.0 TT = JDT 2453800.5                  MPC
M 344.72705              (2000.0)            P               Q
n   0.32727658     Peri.   31.71927     -0.84182069     +0.53975635
a   2.0854163      Node   180.94955     -0.50704369     -0.79143709
e   0.5009078      Incl.    3.47934     -0.18505304     -0.28686306
P   3.01           H   24.6           G   0.15           U   9
Residuals in seconds of arc
060323 G96  0.0   0.1-    060323 G96  0.0   0.2+    060324 673  0.7-  0.2-
060323 G96  0.9+  0.3+    060323 G96  0.1+  0.1-    060324 673  0.1+  0.6+
060323 G96  0.6-  0.2+    060323 G96  0.2+  0.1-    060324 734  0.1-  0.5+
060323 G96  0.5-  0.2-    060324 673  0.8+  0.3+    060324 734  0.6+  1.2-
060323 G96  0.1-  0.3-    060324 673  0.4-  0.3-    060324 734  0.5-  0.6+

Ephemeris:
2006 FH                  a,e,i = 2.09, 0.50, 3                   q = 1.0408
Date    TT    R. A. (2000) Decl.     Delta      r     Elong.  Phase     V
2006 03 16    10 34.81   +04 47.2    0.137    1.127   162.9    15.0    21.4
2006 03 26    11 01.15   +07 58.3    0.0965   1.088   158.2    19.9    20.7
2006 04 05    12 08.05   +13 25.0    0.0638   1.060   157.4    21.3    19.8
2006 04 15    14 42.50   +18 34.5    0.0482   1.044   146.9    31.7    19.5
2006 04 25    17 23.17   +14 21.1    0.0603   1.041   124.7    52.5    20.5
2006 05 05    18 36.21   +08 50.8    0.0878   1.053   118.1    57.7    21.5

Timothy B. Spahr             (C) Copyright 2006 MPC           M.P.E.C. 2006-F25

Read MPEC 2006-F24 Read MPEC 2006-F26


Our Web policy. Index to the CBAT/MPC/ICQ pages.


Valid HTML 4.01!